Location: Unspecified
(0.0000°N, 0.0000°E)
Time: 18:47:46
(UTC+00:00)

deb Briz - Pass Details

Date: 15 February 2026
Orbit: 1858 x 2172 km, 64.9° (Epoch: 11 March)

Event Time Altitude Azimuth Distance (km) Brightness Sun altitude
Rises 05:19:57 0° 209° (SSW) 5,492 ? -13.2°
Reaches altitude 10° 05:23:17 10° 211° (SSW) 4,527 ? -12.4°
Maximum altitude 05:35:00 65° 290° (WNW) 2,290 ? -9.5°
Drops below altitude 10° 05:47:12 10° 11° (N) 4,682 ? -6.6°
Sets 05:50:44 0° 14° (NNE) 5,687 ? -5.7°
